Вернуться в каталог

KUIPER-00136

АктивенСвязьLEO
NORAD 65962·PAYLOAD·🇺🇸 United States

Запущен Oct 14, 2025 с Cape Canaveral Space Force Station

Loading…

Ближайшие Пролёты (ближайшие 24 часа)

TLE

СвежийSource: CelesTrak SupGP

Эпоха: Sep 14, 2026, 15:54 UTC

1 65962C 25228R   26257.66292824 -.00000765  00000+0 -10016-3 0  2575
2 65962  51.8994 232.5140 0000856  44.8759 345.2715 14.79942055    13

Отслеживайте KUIPER-00136 в реальном времени с AllMySat

Download on the App Store